Location: Calvera
(42.3882°N, 0.6137°E)
Time: 19:53:58
(UTC+00:00)

Meteor 2-8 Rocket - Pass Details

Date: 28 October 2020
Orbit: 937 x 957 km, 82.5° (Epoch: 23 November)

Event Time Altitude Azimuth Distance (km) Brightness Sun altitude
Rises 05:12:40 0° 351° (N) 3,647 7.4 -14.2°
Reaches altitude 10° 05:15:10 10° 352° (N) 2,697 6.7 -13.7°
Maximum altitude 05:21:22 90° 275° (W) 963 4.5 -12.6°
Drops below altitude 10° 05:27:31 10° 174° (S) 2,674 7.0 -11.4°
Sets 05:29:59 0° 174° (S) 3,613 7.7 -11.0°
